KQA265 HKMO-HKJK

Flight info

Callsign KQA265
Flight time 0h 43m
Altitude 24000
Route NERAG1A UTIKU Q315 UTEPI UTEPI2C
Aircraft B78X/H-SDE1E2E3FGHIJ2J3J4J5M1RWXY/LB1D1

Departure

Time 2026-04-30 11:02
Airport Moi International Airport (HKMO)

Arrival

Time 2026-04-30 11:45
Airport Jomo Kenyatta International Airport (HKJK)
Time Latitude Longitude Altitude Speed Heading
2026-04-30 10:20 -4.02994 39.60258 209 ft 0 kts 119°
2026-04-30 10:43 -4.02989 39.60250 209 ft 2 kts 119°
2026-04-30 10:43 -4.02980 39.60234 209 ft 3 kts 119°
2026-04-30 10:44 -4.02971 39.60216 209 ft 3 kts 118°
2026-04-30 10:44 -4.02967 39.60209 209 ft 0 kts 118°
2026-04-30 10:45 -4.02967 39.60210 209 ft 0 kts 118°
2026-04-30 10:48 -4.02968 39.60210 209 ft 0 kts 118°
2026-04-30 10:49 -4.02969 39.60216 209 ft 3 kts 99°
2026-04-30 10:49 -4.02954 39.60230 209 ft 3 kts 13°
2026-04-30 10:49 -4.02935 39.60219 209 ft 6 kts 312°
2026-04-30 10:50 -4.02905 39.60176 209 ft 10 kts 304°
2026-04-30 10:50 -4.02872 39.60121 209 ft 5 kts 300°
2026-04-30 10:50 -4.02856 39.60094 209 ft 1 kts 300°
2026-04-30 10:50 -4.02852 39.60088 209 ft 3 kts 300°
2026-04-30 10:51 -4.02835 39.60059 209 ft 2 kts 300°
2026-04-30 10:51 -4.02826 39.60042 209 ft 5 kts 299°
2026-04-30 10:51 -4.02795 39.60016 209 ft 7 kts 351°
2026-04-30 10:51 -4.02744 39.60039 209 ft 9 kts 29°
2026-04-30 10:52 -4.02675 39.60075 209 ft 13 kts 27°
2026-04-30 10:52 -4.02586 39.60124 209 ft 16 kts 28°
2026-04-30 10:52 -4.02478 39.60183 209 ft 19 kts 29°
2026-04-30 10:52 -4.02356 39.60252 209 ft 21 kts 32°
2026-04-30 10:53 -4.02232 39.60330 209 ft 22 kts 32°
2026-04-30 10:53 -4.02105 39.60403 209 ft 12 kts 25°
2026-04-30 10:53 -4.02048 39.60428 209 ft 10 kts 22°
2026-04-30 10:53 -4.01975 39.60464 209 ft 14 kts 26°
2026-04-30 10:54 -4.01880 39.60515 209 ft 17 kts 30°
2026-04-30 10:54 -4.01773 39.60577 209 ft 19 kts 30°
2026-04-30 10:54 -4.01655 39.60646 209 ft 14 kts 30°
2026-04-30 10:54 -4.01625 39.60663 209 ft 4 kts 28°
2026-04-30 10:55 -4.01600 39.60676 209 ft 0 kts 27°
2026-04-30 10:55 -4.01589 39.60682 209 ft 3 kts 27°
2026-04-30 10:55 -4.01561 39.60697 209 ft 6 kts 28°
2026-04-30 10:56 -4.01518 39.60720 209 ft 5 kts 28°
2026-04-30 10:56 -4.01479 39.60737 209 ft 8 kts 17°
2026-04-30 10:56 -4.01445 39.60740 209 ft 5 kts 355°
2026-04-30 10:56 -4.01406 39.60725 209 ft 6 kts 330°
2026-04-30 10:57 -4.01401 39.60722 209 ft 1 kts 327°
2026-04-30 10:57 -4.01400 39.60721 209 ft 0 kts 327°
2026-04-30 10:57 -4.01392 39.60717 209 ft 3 kts 329°
2026-04-30 10:57 -4.01369 39.60699 209 ft 6 kts 317°
2026-04-30 10:58 -4.01364 39.60694 209 ft 0 kts 316°
2026-04-30 10:58 -4.01348 39.60677 209 ft 8 kts 310°
2026-04-30 10:58 -4.01332 39.60640 209 ft 4 kts 263°
2026-04-30 10:58 -4.01347 39.60623 209 ft 2 kts 210°
2026-04-30 11:00 -4.01347 39.60622 209 ft 0 kts 210°
2026-04-30 11:01 -4.01496 39.60540 209 ft 74 kts 209°
2026-04-30 11:01 -4.02249 39.60124 210 ft 171 kts 210°
2026-04-30 11:01 -4.03428 39.59462 687 ft 205 kts 208°
2026-04-30 11:02 -4.04739 39.58796 1625 ft 214 kts 206°
2026-04-30 11:02 -4.06079 39.58180 2935 ft 199 kts 204°
2026-04-30 11:02 -4.07343 39.57638 3708 ft 191 kts 201°
2026-04-30 11:02 -4.08628 39.57113 3297 ft 214 kts 205°
2026-04-30 11:03 -4.09811 39.55878 3633 ft 279 kts 234°
2026-04-30 11:03 -4.10316 39.53912 5185 ft 310 kts 260°
2026-04-30 11:03 -4.09936 39.51730 7089 ft 329 kts 285°
2026-04-30 11:04 -4.07466 39.48086 12237 ft 291 kts 308°
2026-04-30 11:04 -4.06188 39.46564 14696 ft 285 kts 310°
2026-04-30 11:04 -4.04846 39.45050 16238 ft 291 kts 311°
2026-04-30 11:04 -4.03450 39.43515 17783 ft 308 kts 311°
2026-04-30 11:05 -4.01952 39.41888 19043 ft 326 kts 311°
2026-04-30 11:05 -4.00315 39.40119 19473 ft 368 kts 311°
2026-04-30 11:05 -3.98436 39.38086 19096 ft 431 kts 312°
2026-04-30 11:05 -3.96315 39.35809 18675 ft 439 kts 313°
2026-04-30 11:06 -3.94285 39.33641 18979 ft 421 kts 313°
2026-04-30 11:06 -3.92295 39.31519 19143 ft 426 kts 313°
2026-04-30 11:06 -3.90260 39.29332 18876 ft 438 kts 312°
2026-04-30 11:06 -3.88152 39.27085 18900 ft 441 kts 312°
2026-04-30 11:07 -3.86046 39.24837 18563 ft 447 kts 313°
2026-04-30 11:07 -3.84628 39.23324 18259 ft 442 kts 313°
2026-04-30 11:07 -3.82557 39.21122 18608 ft 416 kts 313°
2026-04-30 11:07 -3.80080 39.18467 18804 ft 377 kts 312°
2026-04-30 11:08 -3.78893 39.17195 18699 ft 369 kts 312°
2026-04-30 11:08 -3.76622 39.14767 18949 ft 356 kts 312°
2026-04-30 11:08 -3.75459 39.13525 18686 ft 370 kts 312°
2026-04-30 11:08 -3.73662 39.11602 18552 ft 394 kts 312°
2026-04-30 11:09 -3.71748 39.09547 18862 ft 411 kts 312°
2026-04-30 11:09 -3.69761 39.07425 18833 ft 429 kts 312°
2026-04-30 11:09 -3.67706 39.05230 19174 ft 432 kts 313°
2026-04-30 11:09 -3.65591 39.02969 19273 ft 443 kts 312°
2026-04-30 11:10 -3.63438 39.00673 18571 ft 444 kts 313°
2026-04-30 11:10 -3.61375 38.98471 18741 ft 414 kts 313°
2026-04-30 11:10 -3.59477 38.96446 18657 ft 398 kts 312°
2026-04-30 11:10 -3.57598 38.94434 18980 ft 386 kts 312°
2026-04-30 11:11 -3.55741 38.92444 18857 ft 404 kts 312°
2026-04-30 11:11 -3.53741 38.90320 18836 ft 433 kts 313°
2026-04-30 11:11 -3.51633 38.88072 19647 ft 440 kts 312°
2026-04-30 11:11 -3.49536 38.85837 21014 ft 436 kts 313°
2026-04-30 11:12 -3.47434 38.83655 22342 ft 437 kts 314°
2026-04-30 11:12 -3.45317 38.81461 23165 ft 446 kts 314°
2026-04-30 11:12 -3.43097 38.79157 23383 ft 461 kts 314°
2026-04-30 11:12 -3.40905 38.76883 23672 ft 449 kts 314°
2026-04-30 11:13 -3.38721 38.74631 23879 ft 446 kts 314°
2026-04-30 11:13 -3.36524 38.72367 24012 ft 450 kts 314°
2026-04-30 11:13 -3.34356 38.70132 24019 ft 453 kts 314°
2026-04-30 11:13 -3.32136 38.67841 24033 ft 452 kts 314°
2026-04-30 11:14 -3.29961 38.65597 24036 ft 450 kts 314°
2026-04-30 11:14 -3.27797 38.63363 24047 ft 450 kts 314°
2026-04-30 11:14 -3.25589 38.61083 24047 ft 450 kts 314°
2026-04-30 11:14 -3.23430 38.58856 24036 ft 450 kts 314°
2026-04-30 11:15 -3.21219 38.56591 24055 ft 452 kts 314°
2026-04-30 11:15 -3.19047 38.54334 24135 ft 452 kts 314°
2026-04-30 11:15 -3.16834 38.52042 24014 ft 459 kts 314°
2026-04-30 11:15 -3.14629 38.49768 24117 ft 452 kts 314°
2026-04-30 11:16 -3.12460 38.47518 23918 ft 450 kts 314°
2026-04-30 11:16 -3.10332 38.45302 24307 ft 435 kts 314°
2026-04-30 11:16 -3.08186 38.43096 23894 ft 449 kts 314°
2026-04-30 11:16 -3.06013 38.40863 24165 ft 446 kts 314°
2026-04-30 11:17 -3.03786 38.38572 24027 ft 458 kts 314°
2026-04-30 11:17 -3.01595 38.36314 24154 ft 453 kts 314°
2026-04-30 11:17 -2.99427 38.34066 24033 ft 453 kts 314°
2026-04-30 11:17 -2.97243 38.31823 24158 ft 447 kts 314°
2026-04-30 11:18 -2.95100 38.29620 24073 ft 439 kts 314°
2026-04-30 11:18 -2.90799 38.25183 24129 ft 451 kts 314°
2026-04-30 11:18 -2.88582 38.22898 24099 ft 467 kts 314°
2026-04-30 11:19 -2.86315 38.20552 23935 ft 468 kts 314°
2026-04-30 11:19 -2.84097 38.18271 24180 ft 452 kts 314°
2026-04-30 11:19 -2.81873 38.15973 24000 ft 446 kts 314°
2026-04-30 11:19 -2.79745 38.13792 24183 ft 434 kts 314°
2026-04-30 11:20 -2.77603 38.11577 24121 ft 445 kts 314°
2026-04-30 11:20 -2.75418 38.09319 24129 ft 455 kts 314°
2026-04-30 11:20 -2.73190 38.07010 24098 ft 456 kts 314°
2026-04-30 11:20 -2.71030 38.04783 24136 ft 449 kts 314°
2026-04-30 11:21 -2.68849 38.02529 24123 ft 448 kts 314°
2026-04-30 11:21 -2.66665 38.00276 24127 ft 452 kts 314°
2026-04-30 11:21 -2.64443 37.97993 24130 ft 453 kts 314°
2026-04-30 11:21 -2.62269 37.95756 24149 ft 450 kts 314°
2026-04-30 11:22 -2.60100 37.93525 24155 ft 450 kts 314°
2026-04-30 11:22 -2.57911 37.91274 24140 ft 451 kts 314°
2026-04-30 11:22 -2.55710 37.89003 24154 ft 450 kts 314°
2026-04-30 11:22 -2.53528 37.86751 24157 ft 450 kts 314°
2026-04-30 11:23 -2.51319 37.84471 24157 ft 451 kts 314°
2026-04-30 11:23 -2.49153 37.82237 24153 ft 451 kts 314°
2026-04-30 11:23 -2.44783 37.77731 24159 ft 450 kts 314°
2026-04-30 11:24 -2.42602 37.75483 24165 ft 451 kts 314°
2026-04-30 11:24 -2.40401 37.73216 24164 ft 452 kts 314°
2026-04-30 11:24 -2.38213 37.70963 24155 ft 449 kts 314°
2026-04-30 11:25 -2.33973 37.66597 22816 ft 435 kts 314°
2026-04-30 11:25 -2.31871 37.64422 21801 ft 428 kts 314°
2026-04-30 11:25 -2.27765 37.60185 19263 ft 417 kts 314°
2026-04-30 11:26 -2.23796 37.56104 17009 ft 401 kts 314°
2026-04-30 11:26 -2.21862 37.54113 15908 ft 394 kts 314°
2026-04-30 11:26 -2.19956 37.52149 14793 ft 388 kts 314°
2026-04-30 11:27 -2.18086 37.50227 13701 ft 383 kts 314°
2026-04-30 11:27 -2.16252 37.48339 12963 ft 370 kts 314°
2026-04-30 11:27 -2.14531 37.46568 12688 ft 350 kts 314°
2026-04-30 11:27 -2.12836 37.44825 12408 ft 343 kts 314°
2026-04-30 11:28 -2.09444 37.41314 12236 ft 363 kts 314°
2026-04-30 11:28 -2.07676 37.39444 12223 ft 379 kts 313°
2026-04-30 11:28 -2.05848 37.37507 12213 ft 384 kts 313°
2026-04-30 11:29 -2.04623 37.36202 12212 ft 376 kts 313°
2026-04-30 11:29 -2.02816 37.34302 12196 ft 371 kts 314°
2026-04-30 11:29 -1.99162 37.30612 12201 ft 372 kts 315°
2026-04-30 11:30 -1.95682 37.27110 12205 ft 335 kts 315°
2026-04-30 11:30 -1.94106 37.25520 12199 ft 313 kts 315°
2026-04-30 11:30 -1.92613 37.24013 12189 ft 292 kts 315°
2026-04-30 11:31 -1.91237 37.22623 12168 ft 266 kts 315°
2026-04-30 11:31 -1.90025 37.21397 12208 ft 233 kts 315°
2026-04-30 11:31 -1.88915 37.20276 12207 ft 225 kts 315°
2026-04-30 11:31 -1.87815 37.19165 12212 ft 224 kts 315°
2026-04-30 11:32 -1.86717 37.18055 12217 ft 223 kts 315°
2026-04-30 11:32 -1.85595 37.16922 12219 ft 223 kts 315°
2026-04-30 11:32 -1.84537 37.15852 12226 ft 222 kts 315°
2026-04-30 11:33 -1.82362 37.13657 12186 ft 221 kts 315°
2026-04-30 11:33 -1.81290 37.12568 12149 ft 210 kts 315°
2026-04-30 11:33 -1.80287 37.11556 11714 ft 201 kts 315°
2026-04-30 11:33 -1.79295 37.10554 10956 ft 205 kts 315°
2026-04-30 11:34 -1.78285 37.09536 10264 ft 214 kts 315°
2026-04-30 11:34 -1.77223 37.08465 9699 ft 218 kts 314°
2026-04-30 11:34 -1.76147 37.07376 9151 ft 223 kts 314°
2026-04-30 11:34 -1.75060 37.06276 8834 ft 221 kts 314°
2026-04-30 11:35 -1.73988 37.05187 8502 ft 219 kts 314°
2026-04-30 11:35 -1.72915 37.04099 8367 ft 215 kts 314°
2026-04-30 11:35 -1.71888 37.03060 8176 ft 212 kts 315°
2026-04-30 11:35 -1.70839 37.02003 8221 ft 212 kts 314°
2026-04-30 11:36 -1.69799 37.00958 8221 ft 215 kts 314°
2026-04-30 11:36 -1.68728 36.99882 8292 ft 216 kts 314°
2026-04-30 11:36 -1.67674 36.98820 8255 ft 214 kts 314°
2026-04-30 11:36 -1.66629 36.97766 8184 ft 214 kts 314°
2026-04-30 11:37 -1.65594 36.96729 8172 ft 212 kts 314°
2026-04-30 11:37 -1.64548 36.95672 8181 ft 213 kts 314°
2026-04-30 11:37 -1.63502 36.94609 8201 ft 213 kts 314°
2026-04-30 11:37 -1.62479 36.93565 8223 ft 213 kts 314°
2026-04-30 11:38 -1.61436 36.92514 8228 ft 213 kts 314°
2026-04-30 11:38 -1.60399 36.91465 8234 ft 213 kts 314°
2026-04-30 11:38 -1.59358 36.90417 8252 ft 213 kts 314°
2026-04-30 11:38 -1.58306 36.89354 8265 ft 214 kts 314°
2026-04-30 11:39 -1.57261 36.88297 8286 ft 213 kts 314°
2026-04-30 11:39 -1.56224 36.87248 8291 ft 214 kts 314°
2026-04-30 11:39 -1.55180 36.86192 8296 ft 213 kts 314°
2026-04-30 11:39 -1.54129 36.85130 8299 ft 214 kts 314°
2026-04-30 11:40 -1.53088 36.84079 8303 ft 213 kts 314°
2026-04-30 11:40 -1.51864 36.83246 8163 ft 220 kts 335°
2026-04-30 11:40 -1.50343 36.83177 8308 ft 217 kts
2026-04-30 11:40 -1.48843 36.83080 8405 ft 216 kts 353°
2026-04-30 11:41 -1.47382 36.82675 8335 ft 214 kts 343°
2026-04-30 11:41 -1.45993 36.82166 8329 ft 214 kts 340°
2026-04-30 11:41 -1.44601 36.81681 8322 ft 214 kts 341°
2026-04-30 11:41 -1.43173 36.81183 8314 ft 214 kts 341°
2026-04-30 11:42 -1.41688 36.81009 7999 ft 222 kts
2026-04-30 11:42 -1.40257 36.81556 7864 ft 218 kts 27°
2026-04-30 11:42 -1.39121 36.82572 7516 ft 221 kts 52°
2026-04-30 11:42 -1.38309 36.83842 7360 ft 215 kts 59°
2026-04-30 11:43 -1.37496 36.85053 6958 ft 211 kts 58°
2026-04-30 11:43 -1.36655 36.86257 6676 ft 207 kts 58°
2026-04-30 11:43 -1.35825 36.87423 6390 ft 205 kts 57°
2026-04-30 11:43 -1.34976 36.88567 6107 ft 204 kts 54°
2026-04-30 11:44 -1.34132 36.89664 5821 ft 196 kts 55°
2026-04-30 11:44 -1.33370 36.90742 5563 ft 185 kts 57°
2026-04-30 11:44 -1.32678 36.91746 5391 ft 163 kts 57°
2026-04-30 11:44 -1.32103 36.92539 5342 ft 109 kts 52°
2026-04-30 11:45 -1.31825 36.92921 5342 ft 39 kts 54°
2026-04-30 11:45 -1.31777 36.92988 5342 ft 0 kts 54°
2026-04-30 11:45 -1.31760 36.93011 5342 ft 17 kts 54°
2026-04-30 11:45 -1.31645 36.93162 5342 ft 32 kts 53°
2026-04-30 11:46 -1.31564 36.93325 5342 ft 20 kts 109°
2026-04-30 11:46 -1.31651 36.93396 5342 ft 15 kts 147°
2026-04-30 11:46 -1.31739 36.93454 5342 ft 15 kts 146°
2026-04-30 11:46 -1.31800 36.93480 5342 ft 8 kts 186°
2026-04-30 11:47 -1.31840 36.93452 5342 ft 7 kts 226°
2026-04-30 11:47 -1.31873 36.93413 5342 ft 7 kts 233°
2026-04-30 11:47 -1.31907 36.93365 5342 ft 11 kts 235°
2026-04-30 11:47 -1.31962 36.93288 5342 ft 17 kts 234°
2026-04-30 11:48 -1.32044 36.93173 5342 ft 24 kts 234°
2026-04-30 11:48 -1.32155 36.93019 5342 ft 27 kts 234°
2026-04-30 11:48 -1.32229 36.92924 5342 ft 13 kts 231°
2026-04-30 11:48 -1.32279 36.92860 5342 ft 9 kts 233°
2026-04-30 11:49 -1.32316 36.92810 5342 ft 9 kts 231°
2026-04-30 11:49 -1.32353 36.92763 5342 ft 8 kts 233°
2026-04-30 11:49 -1.32384 36.92716 5342 ft 8 kts 238°
2026-04-30 11:49 -1.32414 36.92670 5342 ft 8 kts 236°
2026-04-30 11:50 -1.32451 36.92618 5342 ft 9 kts 234°
2026-04-30 11:50 -1.32494 36.92559 5342 ft 11 kts 234°
2026-04-30 11:50 -1.32539 36.92497 5342 ft 11 kts 234°
2026-04-30 11:50 -1.32581 36.92438 5342 ft 10 kts 234°
2026-04-30 11:51 -1.32623 36.92380 5342 ft 10 kts 234°
2026-04-30 11:51 -1.32673 36.92354 5342 ft 7 kts 174°
2026-04-30 11:51 -1.32715 36.92373 5342 ft 6 kts 147°
2026-04-30 11:51 -1.32720 36.92376 5342 ft 0 kts 145°
2026-04-30 11:52 -1.32721 36.92377 5342 ft 0 kts 145°
2026-04-30 11:52 -1.32723 36.92378 5342 ft 0 kts 145°
2026-04-30 11:52 -1.32725 36.92380 5342 ft 2 kts 145°
2026-04-30 11:52 -1.32749 36.92394 5342 ft 4 kts 160°
2026-04-30 11:53 -1.32773 36.92390 5342 ft 3 kts 206°
2026-04-30 11:53 -1.32787 36.92377 5342 ft 3 kts 224°
2026-04-30 11:53 -1.32802 36.92360 5342 ft 4 kts 232°
2026-04-30 11:53 -1.32820 36.92336 5342 ft 4 kts 233°
2026-04-30 11:54 -1.32838 36.92313 5342 ft 4 kts 230°
2026-04-30 11:54 -1.32859 36.92291 5342 ft 4 kts 224°
2026-04-30 11:54 -1.32882 36.92273 5342 ft 5 kts 216°
2026-04-30 11:54 -1.32912 36.92254 5342 ft 5 kts 210°
2026-04-30 11:55 -1.32947 36.92237 5342 ft 6 kts 202°
2026-04-30 11:55 -1.32989 36.92224 5342 ft 7 kts 194°
2026-04-30 11:55 -1.33032 36.92219 5342 ft 6 kts 180°
2026-04-30 11:55 -1.33075 36.92220 5342 ft 6 kts 177°
2026-04-30 11:56 -1.33110 36.92225 5342 ft 3 kts 157°
2026-04-30 11:56 -1.33120 36.92236 5342 ft 1 kts 115°
2026-04-30 11:56 -1.33121 36.92243 5342 ft 1 kts 101°
2026-04-30 11:56 -1.33120 36.92262 5342 ft 3 kts 79°
2026-04-30 11:57 -1.33115 36.92280 5342 ft 2 kts 76°
2026-04-30 11:57 -1.33112 36.92296 5342 ft 2 kts 78°
2026-04-30 11:57 -1.33111 36.92297 5342 ft 0 kts 78°
2026-04-30 12:06 -4.02994 39.60258 196 ft 0 kts 119°